Gillam Airport
CYGX : now visible

Airfield :











YOU CAN JOIN US ON...

 
LOGIN :

Register | Disclaimer

   EN    FR    IT 

 









Legend :    VFR   Marginal VFR   IFR   Intensive IFR   Very Intensive IFR
Visi :
Ceiling :
>= 8 km
>= 3000ft
5 to 8 km
1000 to 3000 ft
1500m to 5 km
500 to 1000 ft
800 to 1500m
200 to 500 ft
< 800m
< 200 ft
Symbols :   Thunderstorms  Fog  Heavy snow  Heavy precipitations  Wind > 20 kt






- Airport Elevation : 476 ft
- IATA code : YGX


CYGX - Gillam

CURRENT METAR :
  • 291000Z 28005KT 15SM SKC M33/M37 A3020 RMK SLP254

EXPIRED METARs :
  • 290900Z 28007KT 15SM SKC M31/M34 A3020 RMK SLP251
  • 290800Z 25003KT 15SM SKC M31/M35 A3018 RMK SLP245
  • 290700Z 29005KT 15SM SKC M31/M35 A3017 RMK SLP241
  • 290600Z 29005KT 15SM SKC M30/M34 A3016 RMK SLP238

TAF TAF CYGX
Valid from the 29 at 07:00 until the 29 at 19:00 UTC


290640Z 2907/2919 29005KT P6SM SKC RMK NXT FCST BY 291300Z
CZWG FIR / North America



MET'MAP, your aeronautical weather chart ! - Copyright ORBIFLY December 2007 - Disclaimer

ORBIFLY MET'MAP TEAM :

Programming & Development : Alexandra Zaïnal
Original concept : Baudouin d'Aumeries
Technical & hardware support : Manuel Goepfert
Assistance : Marc-Olivier Méhu




SOURCES & CREDITS :

   NOAA       Earth
Advisory